Home   Weather   Liverpool   Past weeks
Flag for United Kingdom

Past Weather in Liverpool, England, United Kingdom — Yesterday and Last 2 Weeks

Now
48 °F

Passing clouds.


Feels Like: 40 °F
Forecast: 53 / 44 °F
Wind: 29 mph from West

Location: Liverpool Airport

Current Time: Feb 22, 2020 at 11:19:21 am

Latest Report: Feb 22, 2020 at 10:20 am


Visibility: N/A

Pressure: 29.89 "Hg

Humidity: 66%

Dew Point: 37 °F

Location of LiverpoolLocation

Past Weather in Liverpool — Graph

°F

Liverpool Temperature Yesterday

Maximum temperature yesterday: 54 °F (at 4:50 pm)
Minimum temperature yesterday: 41 °F (at 12:50 am)
Average temperature yesterday: 49 °F

High & Low Weather Summary for the Past Weeks

 TemperatureHumidityPressure
High57 °F (Feb 9, 9:20 am)100% (Feb 7, 9:20 am)30.07 "Hg (Feb 7, 9:20 am)
Low36 °F (Feb 14, 12:50 am)53% (Feb 10, 10:20 am)28.80 "Hg (Feb 9, 1:50 pm)
Average46 °F80%29.60 "Hg
* Reported Feb 7 9:20 am — Feb 22 9:50 am, Liverpool. Weather by CustomWeather, © 2020

Note: Actual official high and low records may vary slightly from our data, if they occured in-between our weather recording intervals... More about our weather records

Liverpool Weather History for the Previous 24 Hours

Scroll right to see more
 ConditionsComfort  
Time TempWeatherWind HumidityBarometerVisibility
9:50 am
Sat, Feb 22
48 °FPassing clouds.25 mph66%29.86 "HgN/A
9:20 am48 °FScattered clouds.24 mph76%29.86 "HgN/A
8:50 am48 °FScattered clouds.24 mph82%29.83 "HgN/A
8:20 am46 °FRain. Scattered clouds.29 mph87%29.83 "HgN/A
7:50 am48 °FRain. Scattered clouds.29 mph82%29.80 "HgN/A
7:20 am50 °FLight rain. Scattered clouds.23 mph82%29.77 "HgN/A
6:50 am50 °FScattered showers. Partly cloudy.23 mph88%29.74 "HgN/A
6:20 am50 °FLight rain. Passing clouds.26 mph88%29.74 "HgN/A
5:50 am52 °FLight rain. Passing clouds.28 mph77%29.71 "HgN/A
5:20 am52 °FLight rain. Passing clouds.30 mph82%29.71 "HgN/A
4:50 am52 °FSprinkles. Partly cloudy.31 mph88%29.71 "Hg4 mi
4:20 am54 °FSprinkles. Passing clouds.33 mph82%29.65 "HgN/A
3:50 am54 °FSprinkles. Passing clouds.35 mph82%29.65 "HgN/A
2:50 am54 °FSprinkles. Passing clouds.30 mph82%29.65 "HgN/A
2:20 am54 °FLight rain. Passing clouds.30 mph82%29.68 "HgN/A
1:50 am52 °FLight rain. Passing clouds.31 mph82%29.68 "HgN/A
1:20 am52 °FLight rain. Passing clouds.28 mph82%29.71 "HgN/A
12:50 am52 °FLight rain. Passing clouds.26 mph82%29.71 "HgN/A
12:20 am54 °FLight rain. Passing clouds.28 mph82%29.71 "HgN/A
11:50 pm
Fri, Feb 21
52 °FLight rain. Passing clouds.25 mph82%29.74 "HgN/A
11:20 pm52 °FSprinkles. Passing clouds.22 mph82%29.77 "HgN/A
10:50 pm52 °FSprinkles. Passing clouds.24 mph82%29.77 "HgN/A
10:20 pm52 °FSprinkles. Passing clouds.22 mph77%29.80 "HgN/A
9:50 pm52 °FSprinkles. Passing clouds.22 mph77%29.80 "HgN/A
9:20 pm52 °FSprinkles. Passing clouds.16 mph77%29.83 "HgN/A
8:50 pm52 °FSprinkles. Overcast.16 mph77%29.83 "HgN/A
8:20 pm52 °FOvercast.17 mph82%29.86 "HgN/A
7:50 pm52 °FMostly cloudy.18 mph77%29.86 "HgN/A
7:20 pm52 °FOvercast.21 mph77%29.86 "HgN/A
6:50 pm52 °FOvercast.21 mph77%29.89 "HgN/A
6:20 pm52 °FMostly cloudy.18 mph77%29.86 "HgN/A
5:50 pm52 °FScattered showers. Mostly cloudy.17 mph77%29.89 "HgN/A
5:20 pm54 °FScattered showers. Mostly cloudy.18 mph72%29.89 "HgN/A
4:50 pm54 °FScattered showers. Partly sunny.20 mph77%29.89 "HgN/A
4:20 pm52 °FScattered showers. Partly sunny.18 mph77%29.92 "HgN/A
3:50 pm50 °FMostly cloudy.25 mph82%29.89 "HgN/A
3:20 pm50 °FLight rain. Mostly cloudy.22 mph82%29.92 "HgN/A
2:50 pm52 °FLight rain. Mostly cloudy.24 mph77%29.92 "HgN/A
2:20 pm50 °FLight rain. Mostly cloudy.20 mph82%29.95 "HgN/A
1:50 pm50 °FSprinkles. Partly sunny.23 mph82%29.95 "HgN/A
1:20 pm50 °FRain showers. Partly sunny.23 mph82%29.92 "HgN/A
12:50 pm52 °FRain showers. Partly sunny.24 mph82%29.95 "HgN/A
11:50 am50 °FScattered showers. Partly sunny.22 mph82%29.95 "HgN/A
11:20 am50 °FScattered showers. Partly sunny.20 mph82%29.98 "HgN/A
Weather by CustomWeather, © 2020

See weather overview

Advertising